Theta_e
306 306 306 306 306 305 305 306 306 306 307 295 291 290 289 282 286 289 289 288 289 284 274 276 276 273 279 279 281 278 279 278 279 280 280 280 279 278 279 280 277 277 279 277 277 276 272 275 274 275 274 275 278 276 275 276 277 276 274 275 277 281 266 262 269 270 270 273 273 274 273 274 272 271 270 269 266 267 267 265 265 265 263 263 260 260 262
305 306 305 305 305 306 306 306 306 306 305 298 291 285 282 282 284 287 291 288 288 280 275 274 274 276 281 279 280 278 282 280 279 278 279 278 276 277 278 278 279 279 277 277 278 279 270 276 274 275 275 277 274 273 275 275 279 276 276 273 277 267 269 269 261 257 263 265 267 272 273 275 270 267 268 266 266 263 261 263 261 265 262 265 262 260 261
305 305 305 305 306 306 307 307 307 306 306 301 292 286 282 283 283 284 287 291 289 280 275 275 268 274 274 274 276 276 280 278 280 280 280 279 276 276 278 280 280 278 278 276 277 278 277 274 273 272 272 275 275 273 271 270 278 277 279 282 280 269 269 265 261 261 260 262 262 265 266 267 270 269 268 267 265 264 267 268 261 263 264 265 263 260 268
305 305 306 306 306 307 307 307 307 307 306 303 285 283 282 281 280 282 280 284 284 280 278 278 275 270 272 272 275 276 277 280 277 279 281 279 279 278 280 278 278 276 275 275 275 276 277 276 272 268 271 270 273 275 272 274 277 279 280 278 273 264 268 268 262 262 266 268 268 271 273 270 265 266 265 266 264 262 264 263 259 261 261 262 265 265 267
306 306 306 307 307 307 307 308 307 307 306 303 287 281 283 279 278 277 273 278 281 277 278 277 276 274 276 272 276 273 275 277 280 279 281 280 279 279 278 277 277 276 275 274 274 276 274 273 270 269 269 270 272 271 273 274 276 283 281 275 265 262 264 268 266 266 268 270 270 271 272 267 268 264 266 267 266 265 264 263 262 266 262 261 265 267 265
306 306 306 306 307 307 308 307 307 307 305 303 289 283 282 280 280 280 281 280 278 275 278 278 278 278 276 274 276 275 274 276 273 278 281 280 279 278 277 279 277 276 277 276 271 275 271 271 269 268 268 267 273 274 275 276 278 278 275 270 270 265 266 268 266 265 268 268 269 271 269 269 268 266 267 266 266 266 263 263 267 268 261 262 268 267 265
306 306 306 307 307 307 307 306 306 306 303 297 285 284 282 281 281 281 281 278 277 278 279 279 279 280 277 277 278 275 275 275 278 278 278 275 278 278 273 277 277 277 276 276 271 273 267 269 267 266 270 268 269 270 270 276 275 275 270 272 261 266 264 267 264 266 268 268 268 269 268 267 267 265 267 267 266 264 264 265 267 266 265 268 267 266 265
306 306 306 306 307 307 307 307 305 304 302 291 288 283 283 283 280 279 279 278 276 275 275 277 278 279 279 272 278 277 277 278 278 279 277 273 278 278 277 277 277 277 277 274 270 275 274 272 270 269 270 266 267 267 271 272 275 273 270 268 270 270 266 270 263 263 262 267 266 266 267 265 265 267 267 267 266 265 265 262 265 265 262 265 265 264 263
307 306 306 306 306 307 306 306 305 302 299 289 286 284 284 284 282 282 281 276 277 277 273 276 277 274 277 275 278 279 277 279 278 279 278 279 278 279 279 278 278 276 276 276 275 278 277 274 274 275 270 269 275 269 270 275 270 270 269 267 268 270 267 258 257 263 260 267 265 267 267 265 263 263 266 265 265 261 265 260 265 263 261 263 261 260 260
307 306 306 306 307 307 306 306 305 302 298 285 281 286 284 282 284 279 280 276 278 274 273 275 276 276 276 279 279 279 280 278 278 277 277 277 280 280 280 279 277 275 276 275 278 279 277 279 279 277 275 276 275 275 275 275 271 266 265 262 265 263 261 261 258 260 258 266 266 265 266 265 260 258 265 266 265 266 265 266 267 267 267 261 258 260 266
306 306 306 306 306 306 305 306 305 303 291 287 283 285 282 286 288 281 280 277 273 271 271 278 277 279 278 277 277 278 277 278 278 274 275 280 280 278 278 279 275 273 275 279 281 280 280 279 277 276 276 275 274 274 273 273 273 271 267 262 261 260 258 261 262 263 259 262 264 265 259 256 258 266 269 267 265 266 264 265 267 266 266 264 266 267 268
306 305 306 305 306 306 304 303 304 301 294 287 286 285 282 281 281 278 279 278 274 271 274 275 276 277 276 276 276 278 278 278 278 277 278 279 280 278 278 276 272 271 279 279 278 278 277 279 278 277 276 274 274 273 272 273 272 273 271 270 261 260 257 262 261 261 261 259 262 259 255 259 264 269 269 268 267 267 266 267 265 265 265 264 264 266 266
305 305 306 306 305 306 304 303 303 302 298 287 290 287 283 281 283 279 280 278 270 272 270 273 269 272 274 276 277 277 276 275 272 275 278 279 278 279 277 277 276 279 279 279 278 278 275 273 276 273 275 272 272 273 273 272 272 272 271 269 266 265 262 259 260 260 256 256 256 256 257 262 268 268 268 270 269 267 267 265 263 265 266 265 264 265 266
305 305 305 305 305 305 305 301 300 300 298 294 288 283 282 284 283 278 278 278 273 270 269 272 272 275 275 276 274 276 274 275 275 277 278 279 277 278 280 281 281 281 279 277 276 275 272 264 262 263 272 266 265 270 274 271 270 271 270 270 270 265 257 259 262 259 258 253 252 261 263 266 265 265 266 267 264 265 263 260 264 263 264 266 264 265 266
304 305 304 305 305 305 305 302 299 298 295 291 285 282 283 282 283 282 280 282 276 273 271 274 276 276 276 277 276 275 272 271 275 277 274 277 278 279 281 282 280 279 278 281 272 271 269 262 262 258 260 263 261 264 268 271 271 269 269 268 269 269 265 264 260 260 257 260 256 255 253 253 259 267 267 270 269 268 268 265 263 264 265 268 266 264 264
304 304 304 305 305 305 304 304 302 298 296 293 286 283 283 282 282 282 281 281 277 274 277 277 279 276 277 277 276 275 273 269 272 271 272 273 277 280 281 278 278 278 276 269 267 262 264 267 259 258 264 261 265 268 263 269 270 270 269 268 268 266 265 262 263 256 255 255 255 252 253 257 262 266 268 269 270 268 268 261 259 265 265 267 266 264 264
305 305 305 305 305 305 303 302 301 300 300 298 284 284 283 282 281 281 281 279 278 274 278 279 280 278 278 275 274 274 274 270 275 270 271 272 277 275 277 280 280 279 275 267 265 262 264 261 255 257 257 265 265 264 268 265 265 267 271 268 265 260 258 261 261 255 254 253 256 254 251 255 265 266 268 271 269 268 263 257 260 263 266 267 266 264 263
305 305 305 305 305 305 303 302 300 299 297 296 288 285 281 282 281 280 282 280 277 275 279 280 280 279 277 277 276 278 277 275 274 275 273 274 274 275 276 277 276 278 279 270 262 261 258 259 266 263 263 271 271 268 262 265 262 261 265 265 260 258 258 258 257 254 256 260 251 252 258 268 268 267 269 270 269 264 255 257 261 265 267 267 266 264 264
305 305 305 305 305 305 304 302 300 299 297 294 284 285 286 285 283 281 283 279 279 273 277 281 281 279 280 281 280 280 280 279 277 270 267 268 274 277 278 276 278 271 275 264 264 262 262 264 265 259 261 265 268 264 267 262 260 265 264 264 261 256 252 253 250 255 254 249 256 259 259 263 266 269 268 269 264 256 260 264 268 268 267 268 266 263 264
304 305 305 305 305 304 303 302 300 299 298 297 291 285 282 285 283 282 285 276 274 275 278 278 279 278 281 280 278 278 279 277 276 270 267 272 275 274 272 269 274 275 272 268 265 264 263 266 263 265 260 257 266 268 261 264 268 266 264 261 259 258 258 256 255 257 257 252 252 255 257 260 266 268 267 269 261 264 266 267 269 269 268 265 264 264 264
304 305 305 304 303 304 305 303 301 300 299 296 294 287 286 287 286 287 286 285 279 277 275 279 278 279 279 278 280 280 280 278 277 273 277 273 276 269 266 266 271 270 269 263 268 267 260 265 262 262 267 264 269 269 263 258 262 268 268 259 260 258 260 254 252 253 256 247 255 255 263 265 268 268 263 266 269 269 268 268 266 268 266 264 263 264 264
304 304 305 304 303 302 303 304 303 302 301 300 296 289 285 284 284 288 287 286 281 276 276 277 279 278 279 280 281 282 281 281 281 280 277 272 275 273 273 275 275 268 270 265 265 268 267 261 262 263 265 265 266 261 261 258 260 261 264 264 261 264 260 259 262 257 259 258 259 268 269 269 270 269 270 269 269 270 269 268 268 266 266 265 263 263 263
303 303 304 304 303 302 301 302 303 302 302 299 292 287 285 283 284 285 284 283 280 281 281 280 281 281 282 282 282 282 280 282 284 281 279 276 270 275 275 274 274 277 276 275 274 267 266 263 267 261 260 261 264 259 262 259 259 256 262 268 267 269 268 266 264 261 265 269 270 272 271 270 270 270 270 269 269 269 269 268 265 267 266 265 263 263 262
303 303 303 303 303 302 301 302 302 301 299 299 293 288 284 284 284 281 283 281 276 276 278 281 276 275 276 279 280 280 281 281 282 282 283 281 272 269 275 278 278 277 275 276 273 270 264 262 264 260 265 262 257 257 262 261 257 258 259 262 261 265 267 267 262 264 264 260 268 269 269 270 270 270 269 270 269 268 268 267 266 266 265 264 264 262 262
302 302 302 302 303 303 303 302 302 300 299 297 293 289 287 283 282 282 278 276 272 274 273 270 275 281 281 279 280 278 279 280 283 283 282 282 280 276 274 278 278 276 275 277 273 266 261 266 267 264 265 265 266 262 265 263 262 266 260 260 260 264 268 267 266 265 264 266 269 270 270 271 270 269 268 267 268 267 267 267 266 265 265 263 263 262 261
301 301 301 302 302 302 301 300 300 299 299 298 293 283 283 284 283 281 283 281 278 275 274 269 276 280 278 281 280 280 280 279 279 281 282 283 282 280 280 280 280 279 276 273 267 264 262 262 258 255 261 266 269 261 259 267 268 267 266 259 265 266 268 260 264 264 267 269 270 269 270 269 266 268 268 268 268 267 266 265 264 263 262 262 262 262 261
301 301 300 300 302 302 302 301 300 299 297 295 290 287 286 283 282 285 282 281 280 275 273 271 270 274 278 281 281 280 280 278 278 278 280 281 282 281 281 279 278 274 268 267 264 261 260 259 262 266 258 264 257 260 261 266 265 261 259 265 267 267 265 265 264 261 258 260 267 267 263 263 269 268 267 267 267 266 265 263 263 262 261 261 260 260 261
301 301 300 300 301 301 299 300 299 297 296 294 292 288 285 287 285 283 280 285 288 281 274 268 271 278 280 280 281 278 279 279 277 279 279 280 281 279 279 278 275 268 265 269 273 266 257 265 266 260 256 260 265 265 258 258 260 262 263 267 268 268 268 266 262 258 263 269 270 268 269 269 270 269 267 267 265 264 263 263 262 262 262 261 260 259 259
301 301 300 301 302 302 301 300 299 297 296 290 281 284 286 284 285 288 286 283 283 280 277 275 275 274 273 279 280 278 279 277 279 278 278 279 278 277 278 276 272 267 263 265 263 260 259 264 262 262 265 270 266 261 262 262 256 258 265 268 268 270 271 271 271 270 271 271 270 269 268 268 269 268 267 265 264 263 263 263 263 262 261 261 260 260 258
301 301 302 302 302 302 301 302 301 300 294 280 280 276 278 285 286 289 289 284 284 281 276 269 270 272 277 279 281 278 279 278 277 277 276 275 275 275 275 274 272 274 268 267 262 268 267 261 263 268 271 273 267 261 261 255 252 265 267 268 271 271 271 272 272 271 270 270 270 269 269 269 269 266 265 264 264 264 262 262 262 261 261 261 260 259 260
301 301 301 301 300 300 300 299 300 301 292 279 279 277 270 276 284 285 291 282 281 280 272 274 272 270 275 279 279 278 278 279 277 275 275 276 275 275 272 271 273 275 267 262 264 267 266 265 264 269 271 275 266 261 261 255 256 257 266 269 271 271 271 272 272 272 271 270 268 267 267 267 267 265 264 263 263 263 263 263 263 262 261 259 259 259 259
301 301 301 301 301 300 300 298 297 294 285 285 281 280 281 283 284 288 288 286 282 279 276 273 270 269 267 273 276 277 279 277 275 277 277 278 276 275 273 275 274 275 275 264 266 266 265 269 264 263 262 273 266 253 256 258 259 262 266 269 270 271 271 270 270 270 269 268 267 268 267 267 265 265 265 263 263 263 262 262 262 261 260 259 259 258 257
301 301 301 301 300 301 300 299 297 293 289 292 297 296 295 296 295 291 289 282 281 270 270 272 267 269 271 272 276 277 278 278 275 274 275 278 275 275 274 274 273 273 281 274 265 265 268 267 265 265 268 266 258 256 257 260 265 269 269 270 269 270 270 269 269 269 268 267 268 267 267 268 265 265 264 263 263 262 262 261 261 260 258 257 256 257 257
301 301 302 302 302 301 299 298 297 296 292 284 282 287 287 294 290 291 281 280 275 269 270 270 269 270 270 269 273 275 278 275 270 270 271 276 275 276 272 272 274 272 274 271 272 272 270 266 264 264 269 264 259 261 262 268 269 269 268 268 269 269 268 268 268 268 268 267 267 268 267 266 265 264 263 263 262 262 261 260 258 257 256 256 256 256 256
300 299 300 302 301 300 299 296 283 284 283 284 284 282 282 296 291 289 287 284 280 273 267 270 266 264 268 264 259 268 273 274 269 269 270 272 273 273 275 270 267 268 270 273 269 267 260 262 268 266 263 260 263 261 264 270 270 268 267 268 268 268 269 269 269 269 268 267 266 266 265 264 263 262 263 262 262 261 259 259 258 257 256 256 256 256 255
300 300 299 299 299 296 288 290 285 281 280 283 286 292 296 296 293 282 282 282 280 270 268 267 264 264 265 269 266 270 277 272 270 266 267 268 270 271 267 269 271 271 273 269 264 263 262 272 267 263 256 263 263 266 268 269 269 268 269 269 269 269 270 270 269 266 266 265 264 264 264 262 262 262 262 262 261 260 259 258 257 257 256 255 256 256 255
300 298 297 294 285 286 280 280 285 284 284 284 288 295 295 292 285 282 281 281 281 277 273 265 270 266 268 270 267 265 275 269 268 266 261 269 267 264 262 266 267 274 269 263 260 264 268 269 264 260 258 261 262 268 269 268 269 269 269 269 270 270 269 268 267 266 264 264 263 263 263 262 261 261 260 260 260 259 257 257 257 256 255 255 255 254 254
299 296 284 285 282 277 278 279 282 284 294 294 294 287 283 280 279 274 272 273 272 278 271 270 268 264 266 271 268 275 273 264 266 267 264 260 268 267 261 268 270 274 265 259 259 268 262 259 259 262 263 269 270 269 269 269 270 270 269 269 269 269 269 268 266 266 264 264 265 265 264 262 261 261 260 260 259 258 259 259 258 257 256 255 255 255 254
293 284 283 277 279 277 279 285 286 294 289 289 283 281 280 272 274 274 272 266 267 274 267 270 268 265 266 264 266 274 275 270 268 260 266 270 270 266 265 267 269 268 259 261 265 267 265 260 255 256 262 264 265 270 270 271 270 270 269 269 269 268 268 267 267 268 267 267 267 266 265 264 263 262 261 260 259 259 259 258 257 257 256 254 253 253 252
286 288 281 278 280 283 285 284 290 289 285 282 274 275 276 273 276 274 267 269 271 268 266 269 267 265 271 272 268 266 275 269 267 267 265 265 272 267 265 263 263 265 262 258 261 260 264 262 255 256 264 261 266 269 267 269 269 269 268 269 268 267 267 267 267 267 267 266 265 264 263 262 261 261 260 260 258 258 257 257 257 256 255 254 254 252 251
281 279 279 283 282 280 284 283 281 276 277 276 275 272 271 274 271 267 268 265 266 268 266 266 263 267 268 268 270 266 272 270 263 262 264 268 269 269 264 266 265 264 261 259 261 255 255 258 254 257 264 266 268 268 268 268 268 268 268 268 267 267 266 266 266 265 264 263 262 262 260 257 257 258 259 258 258 257 257 256 256 255 252 252 252 252 253
285 286 285 283 281 279 282 281 275 279 275 273 274 271 266 268 268 268 271 272 272 265 268 269 269 268 267 270 270 269 266 263 262 260 266 264 272 267 262 259 259 261 258 260 256 254 259 260 255 258 262 266 268 267 267 268 268 268 268 267 266 266 265 264 265 264 263 263 262 261 260 256 255 257 256 256 256 255 255 252 252 250 251 252 252 251 252
293 288 282 278 282 278 276 281 275 271 272 270 269 271 268 268 269 269 268 264 262 268 270 268 268 273 272 269 269 267 270 275 274 266 265 265 271 262 259 258 259 261 262 254 256 257 257 257 256 265 269 269 268 268 268 269 269 268 268 267 266 266 265 264 264 263 262 262 259 259 259 255 253 255 252 252 251 251 249 250 251 249 250 251 251 251 251
287 283 282 275 280 277 280 279 277 278 273 266 269 271 268 268 269 268 268 268 266 269 267 272 269 271 271 265 266 268 269 273 275 262 265 261 262 259 259 259 257 261 259 257 258 261 261 256 265 266 267 268 268 268 269 269 268 266 266 266 264 263 263 262 261 260 259 259 257 256 254 252 252 251 249 249 251 252 251 248 248 250 250 250 250 251 250
285 279 273 278 274 275 277 276 272 270 275 273 271 267 265 272 271 262 271 268 269 271 264 262 265 267 269 265 264 266 270 265 267 267 265 262 263 259 261 262 258 255 258 260 254 255 258 263 266 265 268 269 270 271 270 269 268 268 267 263 263 263 262 262 262 261 261 260 259 257 256 255 253 254 252 250 249 250 250 251 251 250 251 251 250 250 249
281 278 273 275 275 274 271 271 268 274 271 268 269 266 266 268 269 268 266 261 263 264 267 264 261 263 265 261 268 266 256 260 266 263 257 258 261 261 259 259 259 262 258 256 258 260 263 261 265 269 270 270 270 269 269 269 268 266 265 266 266 263 263 262 262 261 261 261 259 257 257 256 256 256 256 255 253 250 248 250 250 251 251 250 250 250 250
278 274 270 273 274 271 271 274 272 271 273 266 263 266 268 269 265 267 266 262 264 263 262 259 262 265 267 264 265 264 259 259 264 262 261 264 262 260 260 262 261 255 259 258 256 258 260 264 267 268 269 269 268 266 266 267 267 265 266 266 264 263 263 262 262 261 262 259 257 257 257 257 256 256 255 253 254 253 252 251 250 250 251 251 252 250 248
281 275 277 279 274 271 275 273 267 265 264 267 265 261 262 261 267 270 266 263 266 267 266 265 267 266 266 262 263 264 260 256 263 263 261 262 263 261 258 258 258 254 257 260 264 263 264 265 265 269 268 267 267 267 266 266 265 265 265 265 265 264 263 262 262 262 260 258 258 257 257 255 256 255 254 254 253 253 253 252 251 248 247 247 246 246 244
275 274 281 274 271 266 271 268 268 271 268 260 258 260 264 267 268 266 265 262 266 264 264 266 264 265 267 261 260 264 266 263 263 262 261 261 263 258 258 260 255 260 263 264 266 266 267 270 265 263 262 262 264 266 267 267 267 266 265 265 265 265 264 263 263 262 260 259 257 257 256 256 254 253 253 252 251 253 254 251 249 248 247 248 248 248 247
279 278 274 271 273 271 266 264 272 274 265 259 265 267 261 265 265 264 264 265 260 262 264 267 265 265 263 263 263 258 260 257 261 262 261 260 257 256 258 258 257 262 260 260 263 266 268 266 260 262 263 262 263 265 266 266 265 264 264 263 263 262 263 262 261 261 260 259 257 256 254 253 253 253 253 254 254 253 250 247 247 247 247 246 246 247 247
272 273 271 270 276 276 272 276 278 274 275 270 263 266 267 268 267 268 266 263 262 264 265 265 261 261 266 261 261 265 265 261 262 263 261 261 256 258 260 263 267 265 269 269 269 269 267 263 262 264 263 264 265 266 266 266 263 263 262 261 261 260 260 260 260 261 258 259 255 255 252 253 255 255 255 252 250 249 248 249 249 247 247 248 245 246 246
274 277 278 270 262 266 269 270 269 271 275 268 263 266 268 267 266 264 264 268 266 269 268 262 263 263 262 266 263 263 263 262 263 260 262 263 259 260 258 264 273 275 273 270 271 267 264 262 263 265 267 269 267 266 265 261 260 259 256 257 258 259 258 259 259 259 257 255 253 254 255 252 251 249 249 250 249 248 250 253 252 248 248 248 248 247 247
Wind_Speed
17 17 16 16 16 15 16 16 16 17 18 4 3 1 3 4 1 2 3 3 3 9 5 1 6 4 0 1 1 1 1 2 1 2 3 1 0 1 3 0 1 0 0 0 1 0 0 0 1 1 2 0 0 1 2 2 3 2 3 1 0 2 1 3 6 4 2 2 0 0 2 2 4 5 5 4 3 1 1 2 1 1 4 2 3 1 2
15 16 15 15 14 14 14 15 15 14 14 3 1 6 3 1 0 4 2 3 4 9 3 2 2 1 0 2 1 2 1 3 4 2 2 2 3 1 1 1 1 0 0 0 1 1 0 0 2 2 1 2 1 3 3 1 3 2 1 0 3 2 1 2 3 4 5 3 4 1 1 5 5 2 4 2 1 2 2 1 0 0 1 1 2 4 1
15 14 13 13 14 14 13 14 13 12 10 3 0 2 3 3 0 0 7 12 10 5 2 6 4 1 1 2 5 4 2 1 1 0 2 1 1 0 1 1 2 0 0 1 0 2 3 1 2 1 0 1 0 3 2 4 1 1 3 3 3 1 1 2 3 4 6 7 8 8 8 4 2 2 6 3 6 6 4 3 2 1 1 4 0 4 0
13 13 13 14 14 14 14 13 12 11 9 5 4 3 3 2 1 6 6 8 7 6 1 5 6 4 1 4 1 1 2 0 2 2 1 1 0 1 1 0 0 2 2 2 3 4 4 4 1 3 4 3 2 3 5 2 1 3 4 1 1 2 1 2 3 3 4 7 4 1 3 4 2 8 5 9 1 1 1 2 3 0 2 4 3 1 3
13 13 14 15 15 15 15 13 12 9 6 4 5 4 3 2 5 1 3 5 8 4 6 4 3 2 2 3 1 7 1 2 1 4 1 0 0 1 4 4 3 3 4 2 1 2 1 3 4 1 3 2 3 5 2 4 3 5 2 1 2 2 2 2 1 1 2 1 3 4 2 2 1 4 5 5 7 5 5 4 0 1 2 5 1 1 4
13 14 15 15 15 15 14 14 12 7 4 2 1 4 4 4 1 1 1 4 2 6 6 7 6 3 3 1 0 1 2 4 1 3 1 0 0 0 0 8 4 0 0 1 2 6 2 3 1 3 1 3 5 3 1 2 7 4 1 1 2 1 2 3 3 4 2 1 2 1 3 2 2 2 3 5 5 8 8 1 2 3 1 5 5 4 4
14 15 15 16 15 15 14 14 12 6 4 4 2 4 2 4 2 1 2 2 1 1 1 1 4 9 4 2 3 1 3 3 0 0 4 2 4 4 2 5 7 4 2 1 1 2 2 3 1 2 4 3 4 5 5 0 5 6 3 4 1 2 1 2 2 1 1 3 3 1 4 2 2 4 4 4 5 3 3 1 0 2 5 7 6 5 6
14 15 15 16 16 17 16 15 13 5 4 2 7 3 3 1 2 1 5 7 4 1 1 1 4 8 3 3 2 1 1 2 3 1 3 3 4 3 5 2 3 4 5 2 3 0 1 1 1 3 3 2 1 0 1 5 5 6 3 1 1 3 3 4 0 1 1 2 1 3 2 2 3 3 6 6 4 1 2 1 2 4 4 2 6 8 7
14 15 16 16 17 18 17 17 15 8 1 6 5 1 2 1 0 4 7 6 5 2 4 3 4 4 7 5 1 1 2 1 0 2 1 2 1 2 1 1 0 2 5 6 3 1 1 2 1 0 2 2 1 1 2 2 5 6 5 5 6 6 2 2 3 3 3 1 3 1 2 5 3 3 7 8 6 3 3 2 2 1 7 7 6 5 3
15 15 16 16 17 17 18 18 16 13 4 7 2 3 0 2 0 3 6 6 3 4 3 1 3 5 1 1 2 1 3 1 0 3 1 1 1 0 0 1 3 2 6 5 2 2 1 1 0 1 1 3 3 3 1 0 0 2 2 0 3 1 1 3 3 3 3 1 1 3 1 0 1 3 5 6 4 0 2 3 3 3 2 4 5 5 1
15 15 15 16 16 16 17 17 17 17 3 4 4 1 0 1 1 2 6 8 4 3 1 6 7 0 0 3 1 1 1 3 1 2 0 1 1 0 1 1 4 2 3 1 0 0 0 1 3 3 5 4 4 2 3 6 5 2 0 1 1 1 3 1 0 1 6 7 8 1 2 3 2 1 1 2 2 2 4 8 10 5 1 2 1 2 5
14 14 14 14 15 15 16 17 16 15 8 2 5 4 1 1 4 5 5 8 0 5 5 3 2 2 4 4 0 1 4 4 2 1 4 1 2 2 4 3 4 3 0 1 1 2 2 2 5 5 6 4 4 4 6 11 5 4 1 1 1 2 2 1 1 1 5 6 9 4 3 1 3 2 1 2 3 1 4 12 1 2 2 4 4 5 7
13 13 13 13 13 14 13 15 16 15 11 4 6 5 0 0 2 5 8 9 3 4 5 1 2 2 0 3 2 0 2 1 1 1 2 2 2 4 2 1 2 1 1 2 2 1 2 1 0 1 3 2 2 5 10 10 8 6 5 4 2 3 2 1 2 0 1 5 4 4 3 1 1 2 4 4 2 0 8 1 2 1 3 2 3 6 7
13 12 13 12 13 12 12 12 15 16 14 6 9 4 2 1 3 4 4 8 2 0 1 1 3 5 7 6 2 3 1 3 2 0 2 2 2 2 1 0 0 1 1 2 2 2 1 4 1 3 2 6 1 1 0 1 4 7 9 8 4 4 4 2 1 2 2 1 1 8 1 0 2 4 3 3 2 5 3 8 3 6 2 1 3 6 6
12 12 12 12 12 12 11 9 10 13 14 12 12 6 6 4 2 6 2 8 7 2 1 2 3 2 4 3 3 3 4 2 4 2 1 1 1 0 0 0 1 0 0 1 1 4 1 1 2 3 3 6 2 3 3 1 1 3 4 5 8 4 5 1 3 2 2 1 6 7 6 1 2 4 3 2 3 3 3 1 6 3 3 0 4 5 7
11 11 12 12 12 12 12 9 6 8 12 10 10 8 7 3 1 4 6 8 9 5 3 1 1 2 2 2 2 3 0 1 0 1 2 2 0 0 0 0 0 0 3 6 2 4 1 1 2 3 1 1 2 1 3 3 4 1 3 6 6 5 8 5 8 0 4 4 1 2 2 3 3 6 3 4 2 2 2 2 7 2 2 4 3 5 6
11 11 12 12 11 12 12 11 10 7 3 5 5 6 8 6 3 4 7 7 9 5 1 1 1 2 2 2 1 2 1 1 0 1 1 1 1 1 2 1 0 1 1 2 4 2 4 5 1 1 1 1 1 1 3 2 3 7 7 4 9 8 5 5 8 4 2 2 1 4 3 3 2 3 5 5 1 4 2 8 6 4 5 3 4 5 6
11 12 12 12 11 11 11 10 9 11 12 7 8 9 4 3 2 1 8 8 9 3 1 2 2 1 2 1 1 0 1 1 1 1 0 1 1 1 2 2 1 1 1 0 0 5 3 2 2 1 0 1 0 0 1 1 2 2 5 6 5 7 5 6 3 2 0 1 3 2 4 1 1 2 6 5 2 3 3 8 6 1 2 2 2 4 4
12 11 11 11 11 10 10 11 9 5 4 5 4 6 8 8 6 3 10 5 7 5 2 2 2 1 1 2 1 1 1 0 1 2 0 2 1 0 0 1 0 1 4 3 4 2 2 0 1 1 1 2 2 0 0 2 2 0 1 5 4 2 0 1 2 4 3 1 1 5 6 4 1 4 4 3 1 6 11 1 1 5 7 4 1 4 4
11 10 11 10 10 10 11 10 11 13 15 12 6 10 1 7 5 2 8 9 4 7 0 2 1 1 2 0 1 2 1 2 1 3 2 1 1 2 1 2 2 1 2 3 2 2 2 1 0 1 1 0 1 3 1 1 1 1 1 1 2 1 1 3 1 2 1 4 1 5 5 1 3 5 2 1 2 5 1 4 4 2 6 5 3 2 6
11 10 10 11 11 10 9 9 10 9 8 6 4 9 10 10 7 11 7 14 12 12 3 1 0 1 0 1 1 1 0 2 0 2 1 2 1 1 2 1 2 1 0 1 2 0 2 0 1 1 1 2 1 1 1 1 3 1 0 3 3 2 1 2 2 4 1 0 1 2 4 1 4 1 2 3 3 1 1 3 7 3 3 2 2 3 2
10 10 10 10 12 11 9 8 8 9 9 8 4 12 11 3 6 10 9 11 12 8 5 2 4 2 2 0 1 0 0 0 1 1 1 0 2 2 2 2 1 1 1 3 3 1 1 1 1 1 1 0 3 1 1 2 2 1 0 1 2 5 1 5 3 3 3 5 5 3 1 2 3 2 5 3 2 1 0 1 4 7 3 1 3 4 3
10 10 10 9 11 11 11 12 10 9 11 6 7 8 9 2 4 2 1 19 4 6 2 3 2 1 0 1 2 1 2 1 1 3 1 1 2 3 2 1 0 0 1 0 1 3 3 6 0 3 2 1 2 1 0 2 1 1 1 3 2 0 1 0 1 5 6 9 11 8 3 1 2 2 3 3 1 1 1 2 4 3 2 1 3 3 4
8 9 9 9 10 12 13 13 13 14 15 12 8 12 6 5 3 3 9 8 6 6 2 0 2 4 3 2 1 1 1 0 1 1 3 1 1 0 1 0 0 1 1 0 1 1 3 2 1 1 1 1 3 1 1 2 3 4 1 2 0 2 1 2 2 2 5 5 1 2 3 3 4 3 2 1 3 3 2 3 3 2 1 1 2 2 4
8 9 9 9 9 10 11 12 12 13 12 13 12 7 6 3 1 1 2 4 1 5 5 3 4 1 1 0 0 1 1 1 2 4 3 1 1 1 1 0 0 1 1 1 1 5 3 2 0 0 1 2 3 2 2 1 2 3 1 4 1 1 3 1 4 2 3 8 2 3 4 5 2 4 4 3 3 3 3 2 3 2 1 0 2 2 5
10 10 11 10 10 11 12 12 12 10 9 7 6 4 5 3 0 1 8 8 6 5 7 2 1 1 0 0 0 0 2 3 3 3 1 1 2 2 2 2 2 3 2 2 1 2 4 4 3 1 4 1 0 2 2 5 1 0 3 5 5 2 4 3 2 3 7 7 7 4 6 2 1 1 2 3 3 3 4 3 2 1 3 4 4 2 4
10 11 12 14 11 12 10 11 12 11 10 9 8 6 6 2 0 1 2 7 6 4 5 2 2 3 1 0 0 1 2 2 2 3 2 2 2 2 2 3 3 2 2 2 3 5 4 2 2 0 1 1 2 1 0 0 1 1 2 3 0 3 3 2 2 4 5 4 4 1 6 8 5 4 6 4 4 3 3 2 1 2 3 3 4 4 3
9 10 12 12 11 10 10 9 10 11 11 9 8 8 5 7 4 0 1 1 0 5 7 4 2 0 1 1 0 1 1 1 2 3 3 3 3 2 3 3 2 1 1 1 1 2 2 1 0 1 1 0 1 0 0 0 1 1 3 6 7 6 6 5 3 3 6 5 3 3 4 6 7 2 4 4 4 3 4 4 3 2 2 2 3 5 5
8 8 7 6 5 4 4 5 6 7 6 4 4 6 7 4 1 4 4 1 8 9 7 3 0 2 1 0 2 2 1 2 3 4 4 4 3 1 2 1 2 4 3 4 4 3 2 1 2 3 0 3 2 0 0 2 0 4 7 5 7 6 6 9 9 6 7 4 1 4 4 6 4 1 3 4 4 4 4 4 4 4 4 3 3 4 5
7 6 5 4 4 3 3 6 7 5 5 1 2 4 5 2 5 7 7 4 6 8 6 3 4 1 1 1 0 1 1 2 3 4 4 3 2 2 2 3 2 1 2 1 2 1 1 2 1 2 1 1 1 2 1 2 1 8 4 3 8 2 4 6 3 6 7 2 1 3 3 5 2 1 2 4 4 4 3 3 4 3 2 2 3 3 3
8 7 6 6 7 8 9 5 3 4 5 1 1 1 2 3 2 1 3 3 1 8 4 6 3 1 2 0 0 2 3 1 1 1 1 2 1 1 1 1 0 1 0 1 3 1 1 1 1 0 1 0 3 1 3 3 3 5 6 8 8 8 7 9 7 5 2 0 1 1 1 2 1 2 2 5 4 3 2 1 2 3 3 2 3 3 2
9 9 8 7 8 11 12 12 9 5 5 7 4 1 1 1 1 2 2 3 1 5 5 4 1 2 0 2 0 0 0 0 1 1 0 0 0 1 1 1 0 0 2 3 2 1 0 1 1 0 1 1 5 2 2 2 2 7 3 4 6 6 5 4 4 2 1 2 2 4 4 3 4 5 4 6 6 4 5 4 3 4 3 3 3 3 4
7 7 7 7 8 9 10 12 9 8 10 11 15 12 7 7 4 3 2 1 8 2 2 6 2 1 0 1 2 1 1 0 2 5 0 1 1 1 0 2 1 3 1 2 1 1 1 2 1 1 0 2 1 1 2 5 9 6 4 4 3 4 5 3 1 1 3 3 4 4 8 5 2 2 0 5 6 5 3 2 2 2 1 2 4 4 4
5 4 3 3 4 5 6 7 8 10 7 5 6 6 5 7 3 4 2 6 5 1 4 4 1 1 1 3 1 2 2 1 1 2 0 1 0 0 1 1 2 0 2 2 1 2 1 2 1 1 0 1 1 1 3 8 7 7 4 3 2 2 1 1 2 3 3 4 4 4 2 0 1 2 3 4 4 4 3 3 2 2 4 4 4 4 4
3 3 2 2 2 2 2 2 3 5 3 1 0 2 2 5 8 4 0 1 1 2 4 3 2 2 2 2 1 2 0 1 1 1 0 2 2 1 1 0 3 2 1 2 3 1 0 1 3 1 2 0 1 3 6 7 8 4 3 4 2 2 0 2 6 6 3 3 3 3 1 2 1 2 4 5 5 5 4 4 4 3 3 4 4 4 3
1 1 2 2 2 1 0 3 6 3 3 1 0 2 0 2 2 3 5 5 4 4 3 1 2 2 1 1 2 1 0 0 0 1 1 1 2 2 2 1 1 0 1 2 2 1 1 0 1 2 1 1 6 8 8 8 5 5 6 6 7 9 7 7 3 2 2 2 3 1 2 2 4 6 4 4 4 4 5 3 3 4 5 5 5 5 3
2 2 2 3 3 1 2 1 2 1 1 1 3 4 2 2 1 1 6 6 6 4 6 3 5 2 3 1 1 4 3 4 3 2 3 2 1 2 3 1 0 0 1 2 1 0 1 1 1 1 1 5 6 5 6 5 5 4 4 6 5 5 4 1 2 3 1 2 3 5 5 4 4 4 3 4 5 4 3 4 5 4 5 6 5 4 5
1 7 2 1 2 2 1 1 0 2 4 7 4 1 4 7 1 3 5 5 3 5 5 5 3 1 1 1 1 2 1 2 2 1 2 1 0 1 0 1 1 1 3 1 3 2 1 4 1 1 8 8 7 7 8 6 7 3 2 3 4 5 4 3 4 3 1 5 5 3 2 3 4 4 4 5 4 5 6 4 3 4 4 4 4 3 3
5 1 3 3 1 1 1 1 2 5 1 0 3 1 1 1 1 1 1 2 2 4 2 4 0 2 2 0 4 3 1 1 3 2 1 1 1 4 1 1 1 1 2 2 0 1 2 2 1 3 8 6 5 4 2 6 4 4 4 4 4 4 4 4 6 6 6 7 7 3 5 6 7 6 3 3 3 3 3 3 3 3 4 4 4 3 3
1 0 0 0 0 0 2 3 5 1 1 0 3 2 0 2 3 1 1 1 2 1 1 3 1 2 2 0 0 2 2 3 2 3 1 3 0 1 1 1 1 0 2 0 3 3 1 2 1 2 8 5 6 3 1 3 4 5 3 4 3 3 4 5 5 4 4 3 1 2 2 3 3 3 4 4 3 4 4 3 4 4 4 4 4 4 5
2 2 1 0 1 1 0 1 2 3 1 0 1 2 1 1 2 0 1 1 0 1 0 1 1 1 0 1 1 2 2 2 0 1 2 1 2 2 1 1 0 0 1 1 2 2 1 0 1 3 7 3 4 2 2 2 4 3 3 3 3 3 4 4 4 4 3 3 2 2 3 3 3 4 3 4 4 5 5 5 5 5 4 3 4 5 4
2 1 1 3 1 1 1 2 3 0 1 1 1 1 0 2 0 1 1 0 1 0 1 0 1 0 2 5 2 2 2 1 2 1 0 1 1 1 1 1 2 1 2 1 1 2 1 1 3 6 7 8 6 1 3 4 4 4 5 4 4 4 4 4 5 4 4 6 5 4 4 5 5 4 4 4 5 5 5 4 5 4 5 5 4 3 3
6 6 4 2 0 1 1 1 2 1 1 2 3 2 1 2 0 0 2 1 1 1 1 0 1 1 0 0 1 1 1 1 1 1 1 1 1 2 1 0 1 1 2 1 1 1 0 3 3 9 7 5 4 5 6 6 3 4 4 4 4 5 5 5 6 6 5 5 5 5 5 5 8 6 4 4 4 3 5 7 8 5 4 4 4 4 4
2 2 1 2 1 1 0 0 0 0 1 1 1 1 1 3 2 1 1 2 1 0 1 0 2 3 3 1 1 1 3 1 1 1 0 0 1 0 1 1 2 2 1 0 0 2 5 4 9 6 2 3 3 5 6 6 5 3 3 3 3 3 3 3 2 1 3 1 1 2 3 5 5 2 1 4 8 10 10 9 7 5 4 3 4 5 4
1 2 2 0 1 1 1 2 2 3 2 1 2 1 3 2 5 3 3 1 1 2 1 2 2 1 2 2 1 0 1 2 2 1 1 0 1 0 1 2 1 2 1 2 2 3 2 6 7 4 7 7 8 7 6 5 6 7 5 2 3 4 4 5 6 5 5 5 6 5 5 5 4 5 5 7 6 7 9 9 6 4 4 4 5 5 5
0 1 1 2 3 2 2 0 1 1 1 3 3 7 5 7 3 3 2 1 2 2 1 3 2 1 1 1 1 1 1 1 0 0 0 1 1 1 1 0 1 1 1 0 1 5 7 7 3 4 5 7 6 4 4 5 4 3 4 5 6 7 7 7 6 6 7 6 5 5 6 4 5 5 6 7 6 6 6 7 4 5 4 4 6 7 5
2 1 2 1 1 1 1 0 1 1 1 3 4 6 3 1 4 1 1 1 1 4 4 0 2 2 0 1 1 1 2 1 0 1 1 0 1 2 1 1 2 1 1 3 4 6 7 7 7 6 6 5 4 3 3 4 4 6 8 5 3 5 5 6 6 7 7 4 4 6 5 5 6 6 4 3 4 5 6 5 6 5 6 8 7 4 4
0 0 1 0 3 1 1 2 0 3 1 1 1 1 2 1 1 2 2 1 1 4 5 3 1 1 1 1 1 1 0 0 0 1 1 1 1 0 1 0 2 2 3 3 7 7 6 4 4 5 5 5 4 4 4 5 5 6 7 6 6 5 5 6 6 7 5 5 6 7 6 5 5 5 6 7 5 5 4 5 7 6 6 5 5 5 5
3 1 0 1 1 2 1 0 3 4 2 1 1 0 1 2 4 4 2 1 3 2 2 1 1 2 1 0 1 0 1 0 0 2 1 1 1 2 1 2 1 4 6 9 8 6 6 5 4 4 4 2 4 5 6 6 7 8 8 8 7 8 6 6 7 6 5 5 5 6 6 5 4 4 5 3 5 7 6 6 6 5 7 9 9 7 7
1 0 2 2 1 2 0 0 1 4 3 3 0 1 1 2 5 4 5 3 1 4 1 1 0 1 1 0 1 0 1 1 1 0 1 2 3 1 1 2 5 5 5 4 5 8 7 6 2 2 5 6 5 6 6 5 6 6 6 6 5 4 5 6 5 5 5 6 6 7 5 4 4 4 6 8 6 2 1 3 5 6 8 10 10 10 11
1 1 1 0 2 4 4 2 1 4 7 4 2 5 6 4 4 4 3 5 5 3 2 1 1 1 0 1 0 1 1 1 0 2 3 3 1 2 3 5 7 8 9 7 6 6 5 4 5 5 5 6 7 7 7 6 6 8 6 5 5 4 4 4 4 5 5 6 5 5 4 7 7 5 4 1 1 1 3 5 6 7 9 8 8 11 11
0 0 1 1 1 0 2 0 1 6 6 2 1 1 3 2 2 2 2 6 4 2 1 1 1 1 1 1 2 1 0 1 1 0 2 5 4 4 5 9 9 7 7 6 7 6 6 6 6 7 6 7 7 7 7 8 7 6 7 6 5 5 5 4 5 5 5 4 5 6 6 4 1 1 1 1 1 1 5 8 6 6 7 7 8 10 11
Wind_Direction
350 349 349 348 345 344 345 346 352 357 351 37 339 107 29 51 159 260 349 345 81 65 63 312 39 56 247 243 20 351 34 101 248 47 345 22 153 9 56 347 49 65 83 274 87 135 72 55 52 313 346 269 277 34 332 286 261 160 329 20 311 60 56 16 281 321 306 335 338 150 89 110 34 37 44 26 4 323 189 183 206 197 316 12 349 253 250
352 351 348 346 340 343 346 352 354 360 17 88 144 67 112 146 10 338 296 50 103 73 91 67 21 2 312 63 74 358 97 44 5 20 344 64 354 80 358 304 94 224 157 140 45 272 46 185 70 30 31 38 174 175 266 263 12 42 335 98 302 41 307 106 328 0 338 337 350 350 321 59 65 21 349 41 293 17 231 101 352 335 276 163 114 261 286
354 350 344 340 340 339 341 347 351 357 4 59 144 97 170 107 310 301 314 2 51 98 181 131 138 42 103 64 29 348 31 99 165 156 25 323 151 117 358 203 263 17 200 54 24 357 47 276 17 94 217 319 3 280 168 281 43 205 267 265 310 104 277 75 61 14 350 332 332 315 319 336 318 75 350 21 37 351 13 316 346 61 341 53 160 262 194
352 345 342 340 338 336 336 337 343 350 352 14 75 141 57 45 104 319 351 12 42 73 58 99 128 114 90 43 322 78 44 24 263 153 125 186 315 67 249 348 75 38 40 22 16 6 14 69 323 41 328 307 324 214 298 146 275 274 218 334 27 131 51 81 148 154 217 222 236 310 10 331 27 306 24 341 358 345 108 113 79 53 281 324 248 171 307
350 347 344 342 339 340 337 337 340 344 353 7 108 46 95 129 74 14 338 341 48 66 27 24 44 97 148 85 355 10 326 252 327 191 64 353 122 42 52 4 37 343 53 10 10 16 17 7 78 356 306 271 260 297 259 287 276 332 150 108 86 69 43 357 103 177 220 287 260 323 10 127 350 35 345 349 4 356 64 73 42 251 61 312 260 260 353
351 349 347 344 343 339 337 347 352 354 35 131 94 47 3 72 238 100 194 111 330 16 3 35 62 24 72 110 124 347 11 16 53 328 75 278 322 111 341 36 49 306 36 26 36 340 29 31 0 323 235 335 332 7 340 36 338 356 351 13 101 123 87 313 88 268 252 286 287 299 60 63 90 48 11 14 352 34 73 80 114 53 84 241 314 16 323
355 354 349 348 345 343 347 1 6 20 86 124 94 99 338 109 140 129 326 83 280 117 255 73 69 56 47 107 69 15 68 56 264 143 319 25 2 38 64 353 346 341 298 153 94 349 52 336 203 139 318 40 325 4 339 315 16 34 19 8 142 83 59 260 148 280 352 10 5 9 117 128 48 34 17 9 27 29 76 58 171 15 280 273 299 333 277
356 353 353 354 352 350 351 2 12 38 109 79 66 46 124 158 123 67 17 87 111 19 35 80 44 66 6 85 335 117 16 33 345 21 34 13 351 16 84 325 340 10 28 58 98 273 164 180 301 261 109 333 92 68 180 296 336 40 32 336 312 56 315 25 265 21 315 326 3 41 83 131 105 57 31 14 356 29 41 36 326 330 319 336 338 314 300
357 358 359 357 360 357 355 3 6 20 236 35 81 34 51 138 109 149 110 50 336 355 22 38 64 68 354 64 317 65 348 71 100 65 335 83 349 3 103 237 170 27 47 49 64 280 234 159 204 196 145 86 320 100 310 109 301 353 6 17 325 45 317 63 51 11 315 344 13 10 73 76 96 8 2 1 7 31 347 14 297 359 285 299 313 314 280
2 359 358 359 2 360 354 359 2 11 67 107 119 86 228 83 84 84 107 83 337 36 321 356 64 33 277 63 325 73 5 3 1 88 9 98 84 208 250 216 115 17 47 33 358 320 180 246 266 188 154 110 85 67 92 5 252 331 65 256 47 19 78 28 15 39 282 263 6 290 290 1 355 338 321 302 289 232 300 273 273 268 261 295 303 272 42
360 358 358 3 5 5 358 1 10 3 54 93 101 126 179 144 137 43 53 92 351 29 32 23 83 230 152 32 340 35 21 42 21 107 309 24 353 131 188 158 112 112 50 354 276 269 11 111 106 97 88 86 96 88 99 69 56 67 30 62 83 65 90 100 310 47 265 301 328 334 52 28 269 204 288 240 241 85 8 314 302 311 105 223 188 304 327
360 0 1 3 8 12 10 12 16 22 46 134 116 107 187 103 73 86 97 92 131 341 72 68 53 342 53 332 230 7 23 15 14 334 116 135 322 8 61 52 94 53 241 129 85 84 113 109 81 85 86 54 76 69 56 61 29 34 44 100 114 65 78 95 186 70 295 319 356 34 32 251 222 131 334 310 233 153 333 293 320 168 31 30 0 337 339
3 2 2 4 11 18 20 20 23 29 38 71 76 121 46 331 105 112 105 103 74 350 41 54 40 76 29 332 55 6 317 241 301 2 70 77 4 21 16 36 86 192 126 115 73 66 72 106 124 176 262 352 323 12 36 37 24 17 41 55 84 0 66 170 29 115 309 31 24 13 280 234 159 240 5 335 132 1 324 279 191 289 96 35 343 306 309
6 6 5 7 13 19 31 37 38 41 38 61 86 83 54 308 93 82 116 97 64 315 182 20 41 6 7 9 33 299 0 28 339 169 78 9 94 38 2 258 258 296 137 115 66 83 48 36 26 14 300 2 6 13 254 99 31 41 27 15 36 127 110 73 0 71 53 206 184 243 325 345 11 356 0 5 6 316 40 310 270 194 144 18 293 289 301
7 7 8 10 12 18 28 50 65 67 66 67 99 87 63 27 49 124 145 91 131 170 147 93 303 310 310 311 358 40 38 324 53 39 284 285 85 224 215 264 332 6 239 123 16 36 144 124 25 26 330 37 10 286 325 12 334 61 63 46 37 14 76 225 88 334 114 302 325 344 16 344 272 212 250 239 256 216 282 157 280 142 260 300 319 307 307
7 9 8 8 11 15 22 35 78 102 95 86 73 91 65 35 254 70 99 120 134 59 2 214 199 224 303 293 327 71 33 44 58 320 359 345 282 10 284 269 274 179 48 69 81 90 38 119 195 85 28 240 236 358 311 348 346 285 62 50 46 37 71 73 91 94 24 35 61 260 212 253 192 209 240 271 252 246 187 117 269 185 227 293 313 300 307
7 7 8 10 13 18 25 31 42 49 68 116 94 75 48 358 56 113 99 64 59 122 64 57 281 258 273 336 12 21 38 106 204 86 10 349 300 284 306 339 304 80 107 74 5 64 32 45 92 134 277 215 30 245 299 54 343 319 329 36 40 30 356 6 47 44 111 128 64 301 203 249 217 222 275 296 347 120 95 342 310 221 262 275 333 311 323
11 11 11 12 16 20 29 38 49 59 68 74 92 83 26 19 75 90 62 80 111 78 341 334 274 253 68 206 179 311 83 0 15 337 98 287 2 10 310 11 350 320 150 82 46 67 69 75 51 56 60 247 242 46 321 226 320 272 319 341 346 355 346 41 64 121 104 124 275 307 306 328 176 237 268 301 133 100 36 302 292 198 279 332 352 310 302
14 13 10 11 17 28 28 30 47 86 128 97 88 60 41 3 351 75 109 72 71 95 286 135 284 277 305 320 261 223 182 109 194 98 328 15 15 230 216 255 152 325 358 135 66 86 105 261 106 111 149 308 30 130 319 25 268 296 4 5 358 350 132 306 63 41 4 208 178 246 244 233 245 273 269 262 76 0 298 267 231 311 333 335 83 306 310
15 12 9 7 22 33 44 38 38 47 49 38 99 96 217 350 344 279 116 101 49 111 258 352 305 97 345 309 105 148 179 35 212 125 134 117 317 51 26 10 309 87 349 57 56 205 94 188 214 132 17 214 290 172 41 244 79 207 158 194 152 237 27 286 332 265 119 44 309 350 341 262 186 264 317 63 58 239 317 315 322 15 319 337 320 324 300
9 11 10 29 36 37 34 52 65 68 68 43 48 102 54 2 7 33 36 117 129 109 48 158 150 222 301 109 336 44 276 114 171 103 234 215 221 83 100 207 247 53 227 113 125 281 154 127 238 190 204 144 266 48 237 264 322 297 96 191 196 217 44 306 281 172 209 26 32 223 211 193 203 112 306 244 217 358 337 1 303 309 281 250 291 285 290
12 14 18 31 42 42 45 43 50 47 47 48 82 92 80 344 31 58 63 68 76 85 154 197 168 168 226 209 177 179 204 28 33 228 141 239 334 136 160 97 118 129 216 119 51 45 18 158 77 65 199 270 21 132 157 47 311 265 309 109 358 226 167 177 229 246 147 219 217 245 172 189 181 182 248 253 217 59 84 260 275 297 306 124 281 290 307
23 26 29 32 43 44 52 54 53 58 51 43 60 64 124 156 22 349 271 80 58 75 45 61 43 328 334 266 214 212 232 205 111 93 203 119 34 15 63 86 70 189 97 52 215 155 181 129 170 159 79 169 164 161 293 162 250 272 179 229 184 99 144 99 76 266 264 258 242 283 322 205 270 200 210 198 166 144 128 251 270 274 265 290 275 306 304
29 35 44 49 53 58 56 54 53 57 63 42 76 118 99 115 160 57 53 73 113 125 54 95 90 0 340 341 240 351 84 350 126 150 134 232 118 120 324 210 202 61 19 171 160 126 189 112 183 142 105 227 87 83 138 296 246 188 82 315 329 252 155 119 182 264 22 293 10 170 237 286 275 236 186 194 158 211 185 240 257 245 284 305 325 320 298
41 57 65 70 63 53 50 57 53 65 69 79 71 66 103 64 352 119 104 110 36 93 111 332 17 236 287 283 82 118 220 160 93 121 133 100 13 137 154 222 85 149 185 173 58 62 38 115 171 115 106 241 118 278 244 120 309 149 296 266 21 319 171 182 217 185 190 251 242 263 291 270 230 177 178 192 198 184 186 196 195 209 200 178 269 302 289
59 65 74 77 70 64 64 65 71 67 72 69 93 106 90 107 275 74 79 74 97 95 99 70 319 23 246 322 268 233 140 104 114 111 142 82 88 359 107 132 110 22 81 77 82 106 121 57 89 127 113 247 86 159 206 200 173 171 181 229 196 160 123 237 183 222 265 278 285 305 279 271 65 180 161 187 179 207 176 164 178 142 247 273 272 256 282
66 74 85 87 74 73 65 68 65 65 65 73 80 81 99 104 82 125 154 155 97 26 49 115 266 299 328 72 161 100 85 115 98 88 83 128 124 65 90 116 121 19 59 43 33 121 75 106 106 185 154 218 130 155 173 12 113 167 260 269 135 88 241 195 48 311 301 243 266 38 357 314 285 197 202 183 193 185 190 152 200 193 272 278 286 285 269
80 91 95 85 73 69 70 74 88 87 84 76 81 87 88 69 356 151 147 161 72 165 152 163 132 189 135 108 68 112 127 104 111 104 110 121 114 100 116 125 134 80 18 93 256 28 28 73 234 208 127 282 92 224 91 337 55 335 247 242 183 178 206 142 197 185 263 254 214 182 220 263 267 281 152 175 164 162 179 220 217 228 233 253 283 296 300
90 96 92 77 66 77 114 141 133 134 125 93 72 64 52 91 72 51 49 91 108 95 88 115 297 33 93 264 142 73 62 104 115 115 119 123 123 147 142 151 123 136 97 70 89 108 110 156 147 133 155 209 115 283 51 283 72 236 239 200 177 229 174 176 208 218 258 285 235 165 162 243 288 126 174 161 167 170 208 203 202 192 222 232 257 266 280
95 88 65 30 18 2 279 220 188 162 124 67 44 45 45 352 12 24 4 55 94 113 105 116 83 260 311 344 296 330 38 73 102 115 121 134 126 159 178 113 94 107 110 133 148 106 185 143 279 289 301 11 193 187 97 148 182 252 262 227 218 246 214 227 196 182 241 196 158 168 216 266 324 90 141 147 150 168 179 206 194 223 246 197 252 269 274
92 91 76 55 37 25 31 65 162 143 91 69 74 48 42 40 320 15 28 60 63 99 122 87 114 270 27 257 175 314 338 354 77 105 158 160 137 138 182 104 115 128 39 356 43 150 141 56 102 14 326 217 115 128 191 135 253 308 261 206 208 208 215 222 220 234 271 161 137 141 198 244 175 125 157 164 169 176 191 188 180 184 201 209 246 256 258
89 88 82 64 50 44 46 56 72 107 84 77 94 159 183 189 263 328 50 104 73 60 81 86 14 15 270 309 278 251 30 321 67 11 33 117 153 34 47 79 147 342 129 120 177 90 67 207 118 224 110 38 71 111 95 126 213 249 251 227 220 218 225 235 238 218 96 111 67 319 268 242 173 204 258 170 174 171 175 199 197 198 198 221 237 235 236
84 83 81 71 57 50 57 67 57 69 95 116 118 105 65 29 51 58 66 66 55 76 109 82 125 211 94 244 320 3 90 328 1 25 184 12 297 351 62 1 34 52 16 100 358 149 184 117 147 73 263 39 105 105 142 211 224 234 217 223 233 221 228 240 234 190 179 189 150 210 275 291 249 228 119 144 157 174 184 190 192 168 194 287 291 282 281
81 78 65 57 64 64 76 86 83 87 70 58 18 10 340 17 40 74 78 81 101 134 75 102 87 48 254 321 82 276 31 97 270 18 312 329 208 37 246 27 353 106 335 101 231 80 339 73 139 218 301 346 57 80 266 250 235 249 258 260 242 228 202 284 268 256 228 209 216 229 252 112 91 109 123 152 175 179 177 167 141 189 243 245 261 254 252
83 56 40 49 86 83 61 86 42 49 96 48 46 258 270 17 45 1 19 137 87 347 36 22 103 70 359 356 55 272 273 78 319 328 146 273 30 57 290 29 327 88 277 77 46 120 149 237 180 94 234 139 66 238 242 255 269 252 254 259 234 156 41 295 263 234 221 208 202 221 131 115 126 220 226 212 195 176 180 206 203 203 259 270 265 273 268
86 43 22 14 39 50 46 31 47 32 31 27 135 170 66 359 88 43 46 67 102 151 89 257 72 114 154 320 302 282 53 51 279 349 220 280 348 34 89 108 300 302 128 62 210 11 152 332 71 254 303 122 231 201 228 201 210 227 204 218 206 179 200 198 210 162 180 173 199 210 196 180 210 245 243 221 199 188 190 218 236 205 225 252 262 265 269
32 320 337 18 24 35 27 234 288 112 182 215 253 297 314 129 303 54 4 37 15 69 124 149 68 235 168 257 272 278 23 316 344 11 339 40 246 299 35 41 185 33 38 3 20 56 253 15 123 239 251 199 245 225 224 201 189 186 210 221 213 210 222 146 138 132 133 233 259 255 234 233 247 252 245 232 219 201 195 234 233 228 249 258 269 281 267
31 42 60 28 36 40 353 324 315 268 294 319 359 42 0 31 117 342 2 29 312 59 8 63 103 247 355 69 308 267 69 266 76 7 302 229 134 292 120 128 227 347 282 247 253 189 81 41 32 207 266 258 268 261 247 219 227 220 203 193 198 198 194 163 139 130 238 308 296 262 258 226 241 237 225 250 221 221 229 234 233 216 221 230 234 236 271
86 62 50 40 100 214 177 260 319 335 29 171 41 90 311 20 54 21 328 288 5 25 313 89 144 162 111 8 271 306 110 276 323 32 69 261 66 309 15 64 285 67 294 32 291 52 269 320 15 6 276 280 324 273 233 208 222 212 209 209 182 178 162 173 175 184 204 227 251 239 200 240 256 262 223 232 234 225 218 228 237 228 217 231 237 232 242
40 51 204 18 64 250 251 289 335 18 57 78 332 100 1 354 80 323 344 38 359 308 29 29 178 174 193 158 345 299 336 46 5 308 237 305 34 215 265 87 268 72 268 159 253 23 124 280 291 23 283 258 244 246 213 202 203 220 196 201 173 165 170 177 202 219 216 239 193 215 227 238 216 219 214 217 218 244 260 238 220 220 222 230 225 221 234
40 85 52 90 240 221 246 288 359 51 66 34 1 3 57 2 32 198 42 61 125 246 157 164 20 12 335 37 131 217 308 72 113 110 125 228 243 97 40 255 221 352 270 245 283 65 70 334 312 194 243 235 229 237 199 208 220 224 205 189 180 171 180 193 203 192 178 195 216 228 213 199 196 208 201 199 205 219 230 230 230 223 219 226 232 234 231
192 172 183 123 113 104 7 18 54 46 14 99 123 313 246 230 323 12 109 35 281 323 314 164 319 204 259 178 204 189 292 154 139 94 87 332 314 143 218 324 0 109 257 239 126 58 80 240 282 278 255 250 249 231 187 223 228 211 217 193 188 183 183 192 201 209 191 198 208 214 206 192 205 209 203 196 209 220 230 240 247 235 221 231 231 239 237
75 69 68 55 37 356 57 80 325 88 103 357 29 353 7 37 14 112 283 292 309 122 267 109 237 192 133 51 328 169 187 201 348 326 53 251 329 55 86 1 54 299 241 10 59 56 334 239 239 250 252 257 225 208 215 216 218 210 213 189 195 195 191 198 206 213 204 202 205 204 204 200 211 216 204 196 195 235 254 230 225 224 227 220 225 229 227
47 35 36 350 57 287 35 270 297 14 345 93 84 305 315 348 309 13 353 279 218 270 235 132 313 60 291 333 125 308 11 357 90 93 32 28 92 293 50 253 223 250 54 43 59 202 230 234 222 230 250 283 275 233 227 222 215 209 228 215 185 184 196 204 181 173 230 204 213 215 183 200 209 207 158 204 193 212 235 246 240 223 229 223 238 241 234
123 354 34 16 18 281 56 275 2 100 22 297 126 185 156 258 267 180 214 243 112 223 60 66 108 102 245 274 57 70 105 221 307 98 258 11 356 179 129 268 268 32 73 252 312 301 319 271 267 264 259 253 247 230 213 206 193 195 195 161 198 200 193 201 218 219 228 209 213 189 204 214 207 216 212 219 220 214 213 233 235 209 226 222 237 252 249
91 183 83 59 324 327 77 208 3 8 296 142 193 198 175 235 189 231 255 80 116 139 164 187 107 108 231 239 146 247 357 72 30 249 170 71 80 282 249 258 87 19 334 40 288 241 226 236 251 250 231 228 237 227 197 205 190 158 138 206 219 202 213 213 222 219 225 220 209 192 217 199 209 213 225 224 218 217 221 233 218 206 214 219 238 240 246
92 27 83 115 108 282 62 128 244 204 182 213 220 193 186 214 207 200 192 165 157 185 99 169 148 165 199 296 348 355 49 46 146 266 88 217 209 267 11 100 277 206 174 264 252 256 265 258 243 242 245 243 243 220 204 196 181 186 208 216 187 203 205 213 220 225 229 214 208 214 220 219 220 221 224 233 238 226 225 217 216 208 199 219 233 234 229
72 251 105 157 259 177 226 256 269 310 276 180 247 213 240 314 351 281 222 191 156 118 126 112 62 354 11 300 93 192 238 342 68 289 145 234 352 37 6 18 265 249 206 199 239 222 236 246 236 239 237 220 201 193 205 204 205 206 212 215 223 222 216 214 224 229 216 208 215 221 227 224 217 212 212 224 235 242 226 225 220 209 212 230 241 240 238
123 107 215 191 188 157 209 250 33 317 269 311 300 279 122 152 224 245 168 153 143 167 186 123 202 109 260 91 92 25 287 301 152 259 13 21 140 226 179 253 308 307 253 191 228 229 223 235 228 237 261 238 219 209 216 205 198 201 207 210 218 218 215 215 222 224 210 211 216 218 228 225 209 214 226 229 241 255 232 222 219 217 212 212 223 231 243
66 309 54 70 3 303 194 235 73 288 306 328 327 267 177 197 261 271 169 127 191 106 42 48 40 97 219 106 321 16 260 267 147 14 67 239 216 210 70 284 231 205 260 239 225 245 246 245 230 274 248 228 230 216 219 222 207 211 216 215 214 203 209 210 222 216 209 211 212 218 220 201 205 212 212 226 230 228 228 221 217 222 229 221 218 230 236
26 105 229 175 175 231 146 256 256 283 310 291 230 228 181 203 196 196 180 128 134 82 58 174 216 95 78 18 56 0 252 144 71 197 172 222 180 125 195 215 241 216 235 235 230 245 248 229 195 241 254 242 233 225 220 215 203 211 208 203 211 208 215 209 218 217 220 220 212 200 208 218 223 218 226 173 161 228 282 269 239 229 230 233 223 225 234
74 221 225 292 45 155 167 122 137 212 229 206 187 240 150 230 230 184 187 121 117 122 223 174 94 42 51 245 228 197 24 52 225 4 328 255 165 165 218 210 242 244 234 249 264 242 239 240 219 223 228 231 229 222 217 212 211 218 209 212 203 201 215 217 216 217 218 216 203 208 228 226 192 145 129 142 172 238 262 268 243 213 225 228 235 226 225